Home > Time Zones > World Clock > Weather > Spain > Palma > Past weeks

Flag for Spain Weather past 2 weeks in Palma, Majorca, Spain

Now
63 °F

Sunny.


Feels Like: 63 °F
Forecast: 54 / 62 °F
Wind: 12 mph from Southwest

Location: Palma De Mallorca / Son San Juan

Current Time: Dec 19, 2014 at 3:38:13 PM

Latest Report: Dec 19, 2014 at 3:00 PM


Visibility: 10 mi

Pressure: 30.33 "Hg

Humidity: 83%

Dew point: 57 °F

Location of PalmaLocation

Historic Weather in Palma — Graph

°F

Palma temperature yesterday

Maximum temperature yesterday: 64 °F (at 12:00 PM)
Minimum temperature yesterday: 54 °F (at 8:00 AM)
Average temperature yesterday: 59 °F

Past Weeks' High & Low Weather Summary

 TemperatureHumidityPressure
High64 °F (Dec 11, 12:30 PM)100% (Dec 5, 10:30 PM)30.39 "Hg (Dec 5, 10:30 PM)
Low37 °F (Dec 7, 8:00 AM)30% (Dec 9, 11:30 AM)29.77 "Hg (Dec 4, 2:00 PM)
Average53 °F79%30.11 "Hg
* Reported Dec 4 2:00 PM — Dec 19 2:30 PM, Palma, Weather by CustomWeather, © 2014

Note: Actual official high and low records may vary slightly from our data, if they occured in-between our weather recording intervals... More about our weather records

Advertising

Palma weather history for previous 24 hours

 ConditionsComfort  
Time TempWeatherWind HumidityBarometerVisibility
2:30 PM
Dec 19
64 °FSunny.12 mph73%30.33 "Hg10 mi
2:00 PM64 °FSunny.9 mph78%30.33 "Hg10 mi
1:30 PM64 °FPassing clouds.10 mph78%30.33 "HgN/A
1:00 PM64 °FSunny.10 mph68%30.36 "Hg10 mi
12:30 PM64 °FPassing clouds.8 mph78%30.36 "HgN/A
12:00 PM63 °FPassing clouds.7 mph77%30.36 "HgN/A
11:30 AM63 °FSunny.2 mph73%30.36 "Hg10 mi
11:00 AM61 °FSunny.No wind72%30.36 "Hg10 mi
10:30 AM55 °FSunny.No wind82%30.36 "Hg10 mi
10:00 AM52 °FSunny.No wind94%30.36 "Hg10 mi
9:30 AM48 °FSunny.No wind100%30.36 "Hg10 mi
9:00 AM46 °FSunny.No wind93%30.33 "Hg10 mi
8:30 AM45 °FSunny.No wind100%30.33 "Hg10 mi
8:00 AM46 °FClear.No wind93%30.33 "Hg10 mi
7:00 AM46 °FClear.2 mph100%30.33 "Hg10 mi
6:30 AM46 °FClear.No wind93%30.33 "Hg10 mi
6:00 AM46 °FClear.No wind100%30.33 "Hg10 mi
5:30 AM48 °FClear.No wind94%30.30 "Hg10 mi
5:00 AM48 °FClear.No wind94%30.30 "Hg10 mi
4:30 AM48 °FClear.3 mph100%30.30 "Hg10 mi
4:00 AM50 °FClear.2 mph94%30.30 "Hg10 mi
3:30 AM48 °FClear.2 mph100%30.30 "Hg10 mi
3:00 AM50 °FClear.3 mph94%30.33 "Hg10 mi
2:30 AM50 °FClear.No wind100%30.30 "Hg10 mi
2:00 AM52 °FClear.2 mph94%30.30 "Hg10 mi
1:30 AM52 °FClear.No wind88%30.30 "Hg10 mi
1:00 AM52 °FClear.1 mph94%30.30 "Hg10 mi
12:30 AM54 °FClear.No wind88%30.33 "Hg10 mi
12:00 AM54 °FClear.No wind94%30.33 "Hg10 mi
11:30 PM
Dec 18
54 °FClear.1 mph94%30.33 "Hg10 mi
11:00 PM55 °FClear.1 mph88%30.33 "Hg10 mi
10:30 PM55 °FClear.1 mph94%30.33 "Hg10 mi
10:00 PM57 °FClear.1 mph82%30.30 "Hg10 mi
9:30 PM55 °FClear.No wind94%30.30 "Hg10 mi
9:00 PM55 °FClear.1 mph94%30.30 "Hg10 mi
8:30 PM57 °FClear.1 mph88%30.30 "Hg10 mi
8:00 PM57 °FClear.1 mph82%30.30 "Hg10 mi
7:30 PM57 °FClear.1 mph82%30.30 "Hg10 mi
7:00 PM57 °FClear.No wind77%30.27 "Hg10 mi
6:30 PM57 °FClear.No wind88%30.27 "Hg10 mi
6:00 PM59 °FClear.No wind82%30.27 "Hg10 mi
5:30 PM61 °FPassing clouds.No wind77%30.24 "HgN/A
5:00 PM61 °FScattered clouds.No wind72%30.24 "HgN/A
4:30 PM61 °FScattered clouds.2 mph68%30.24 "HgN/A
4:00 PM63 °FScattered clouds.2 mph64%30.24 "HgN/A
3:30 PM63 °FScattered clouds.7 mph64%30.24 "HgN/A
3:00 PM63 °FSunny.5 mph64%30.24 "Hg10 mi
Weather by CustomWeather, © 2014

See weather overviewHow to use our weather pages